Terminal Aerodrome Forecast
Issued by NWS Buffalo, NY

Home | Current Version | Previous Version | Text Only | Print | Product List | Glossary On
Versions: 1 2 3 4 5 6 7 8 9 10 11 12 13 14 15 16 17 18 19 20 21 22 23 24 25 26 27
000
FTUS41 KBUF 280901 AAA
TAFART
TAF AMD
KART 280901Z 2809/2906 23012G18KT P6SM -SHRA OVC025
     FM281100 23009KT P6SM VCSH BKN015 OVC100
     FM281300 24010KT P6SM OVC140
     FM282200 25006KT P6SM FEW250
     FM290000 VRB03KT P6SM FEW250=

USA.gov is the U.S. government's official web portal to all federal, state and local government web resources and services.